Zurück zum Katalog

KUIPER-00262

AktivKommunikationLEO
NORAD 67788·PAYLOAD·🇺🇸 United States

Gestartet Feb 12, 2026 von Guiana Space Centre

Loading…

Nächste Überflüge (nächste 24 Stunden)

TLE

AktuellSource: CelesTrak SupGP

Epoche: Sep 14, 2026, 23:07 UTC

1 67788C 26030AA  26257.96383102  .00006561  00000+0  85874-3 0  2570
2 67788  51.8996  78.6622 0001133 110.6661 106.5846 14.79927606    18

Verfolge KUIPER-00262 in Echtzeit mit AllMySat

Download on the App Store